DECAYED

ZK-1A R/B, 61909 (Decayed)

Orbit data source: Space-Track

ZK-1A R/B, 61909 was space debris in LEO originally from a launch on Mon, 11 Nov 2024 UTC launched from the Jiuquan Satellite Launch Center, China (JSC). Debris objects in space refer to the collection of defunct objects orbiting the Earth. Examples of debris include non-operational satellites, rocket bodies, and fragments generated from explosions, collisions, or faulty payload assembly.

Not visible in the next 10 days
Identifier
61909, 2024-205R
Orbit
Decayed
Country
Flag of CNCN / PRC
Related business
Manufacturer
CAS
Mission
Decayed spacecraft
Bus & Motor
Unknown
Mass
500 kg wet, 500 kg dry
Launch date (UTC)
2024-11-11 (1 year ago)
Launch vehicle
Unknown
Launch site
Jiuquan Satellite Launch Center, China (JSC)
Object type
Payload
Rocket body
Debris
Shape & HBR
Cyl, 1.4 m
Radar Cross Section
8.585 m², Large (>1 m²)

Expand to show TLE details & history
Last TLE update: 10 months ago

TLE from 10 months ago
0 ZK-1A R/B
1 61909U 24205R   25109.92697376  .17429277  26733-5  24253-3 0  9998
2 61909  97.4056 198.6236 0011765 214.7533 270.9474 16.48462880 25061
Epoch: 2025-04-19T22:14Z
TLE epoch observation values (Epoch: 2025-04-19T22:14:50.532Z)
Latitude
53.8819°
Longitude
-153.14938°
Altitude
152.225 km
Speed
7.82 km/s
True Right ascension
01h 55m 17s
True Declination
53° 42' 10"
Sunlit
Object was in daylight at epoch
Visualization orbit readout
Latitude
Unknown
Longitude
Unknown
Altitude
Unknown
Speed
Unknown
Apparent Right ascension
Unknown
Apparent Declination
Unknown
Sunlit
N/A
Visualization observer readout
Local Sidereal Time
02:23:58
Azimuth
Unknown
Elevation
Unknown
Doppler factor
Unknown
Orbital elements
Apogee altitude
147.852 km
Perigee altitude
132.514 km
Semi-major axis
6,518.32 km
Eccentricity
0.00118
Inclination
97.4056°
RAAN
198.6236°
Arg. of periapsis
214.7533°
True anomaly
270.8126°
Mean anomaly
270.9474°
Eccentric anomaly
270.88°
Mean motion
4.1242 °/min
Orbital period
87.29 mins
BSTAR
0.00024253
Loading maneuver chart data...
Computing Atmospheric mass density...
Loading historical data...
Loading historical data...
Loading historical data...
Loading historical data...
Loading historical data...
Loading historical data...
Loading historical data...

Documentation

Showing up to 5 results
|